Location: Newark
(30.1000°N, 109.4667°E)
Time: 11:20:29
(UTC+00:00)

A-11 Canister half - Pass Details

Date: 23 February 2020
Orbit: 1516 x 1683 km, 47.2° (Epoch: 06 April)

Event Time Altitude Azimuth Distance (km) Brightness Sun altitude
Rises 11:37:15 0° 297° (WNW) 4,867 12.7 -13.9°
Reaches altitude 10° 11:41:07 10° 308° (NW) 3,855 11.8 -14.8°
Maximum altitude 11:49:14 28° 5° (N) 2,640 10.2 -16.5°
Enters shadow 11:55:21 15° 53° (NE) 3,346 10.3 -17.8°
